Weather History for KISP - November, 2012

Change the Weather History Date:

Sunday, November 4, 2012

  Actual Average Record
Temperature  
Mean Temperature 43 °F 48 °F  
Max Temperature 53 °F 57 °F 76 °F (1990)
Min Temperature 33 °F 40 °F 27 °F (1996)
Degree Days  
Heating Degree Days 22 16  
Month to date heating degree days 75 64  
Since 1 July heating degree days 355 484  
Cooling Degree Days 0 0  
Month to date cooling degree days 0 0  
Year to date cooling degree days 993 787  
Moisture  
Dew Point 30 °F    
Average Humidity 63    
Maximum Humidity 82    
Minimum Humidity 44    
Precipitation  
Precipitation 0.00 in 0.11 in 1.08 in (2004)
Month to date precipitation 0.00 0.47  
Year to date precipitation 36.68 38.98  
Snow  
Snow 0.00 in 0.00 in - ()
Month to date snowfall 0.0 0.0  
Since 1 July snowfall 0.0 0.0  
Snow Depth 0.00 in    
Sea Level Pressure  
Sea Level Pressure 29.92 in    
Wind  
Wind Speed 9 mph (NW)    
Max Wind Speed 18 mph    
Max Gust Speed 23 mph    
Visibility 10 miles    
Events      
T = Trace of Precipitation, MM = Missing Value Source: NWS Daily Summary

Daily Weather History Graph

Daily Weather History Graph

Search for Another Location

Airport or City:

Trip Planner

Search our weather history database for the weather conditions in past years. The results will help you decide how hot, cold, wet, or windy it might be!

Date:

Astronomy

Nov. 04, 2012 Rise Set
Actual Time 6:26 AM EST 4:44 PM EST
Civil Twilight 5:58 AM EST 5:13 PM EST
Nautical Twilight 5:25 AM EST 5:45 PM EST
Astronomical Twilight 4:53 AM EST 6:17 PM EST
Moon 9:19 PM EST (11/4) 11:09 AM EST (11/4)
Length of Visible Light 11h 14m
Length of Day
10h 17m
Waning Gibbous, 72% of the Moon is Illuminated
Nov 4
Waning Gibbous
Nov 6
Last Quarter
Nov 13
New
Nov 20
First Quarter
Nov 28
Full

Hourly Weather History & Observations

Time (EST) Temp. Windchill Dew Point Humidity Pressure Visibility Wind Dir Wind Speed Gust Speed Precip Events Conditions
12:56 AM 41.0 °F 36.4 °F 28.9 °F 62% 29.91 in 10.0 mi West 6.9 mph - N/A   Partly Cloudy
1:56 AM 39.0 °F 36.8 °F 30.0 °F 70% 29.91 in 10.0 mi West 3.5 mph - N/A   Partly Cloudy
1:56 AM 37.0 °F 33.3 °F 30.0 °F 76% 29.91 in 10.0 mi West 4.6 mph - N/A   Clear
2:56 AM 36.0 °F 31.1 °F 30.0 °F 79% 29.90 in 10.0 mi West 5.8 mph - N/A   Clear
3:56 AM 35.1 °F 30.1 °F 30.0 °F 82% 29.91 in 10.0 mi West 5.8 mph - N/A   Clear
4:56 AM 34.0 °F 28.8 °F 28.9 °F 82% 29.92 in 10.0 mi WSW 5.8 mph - N/A   Clear
5:56 AM 33.1 °F 26.9 °F 28.9 °F 85% 29.93 in 10.0 mi WSW 6.9 mph - N/A   Clear
6:56 AM 35.1 °F 29.3 °F 30.9 °F 85% 29.94 in 10.0 mi WSW 6.9 mph - N/A   Partly Cloudy
7:56 AM 41.0 °F 36.4 °F 33.1 °F 73% 29.95 in 10.0 mi West 6.9 mph - N/A   Partly Cloudy
8:56 AM 45.0 °F 38.5 °F 30.9 °F 58% 29.95 in 10.0 mi NW 13.8 mph - N/A   Partly Cloudy
9:56 AM 46.9 °F - 32.0 °F 56% 29.94 in 10.0 mi WNW 12.7 mph - N/A   Scattered Clouds
10:56 AM 48.0 °F - 30.9 °F 52% 29.93 in 10.0 mi NW 9.2 mph - N/A   Scattered Clouds
11:56 AM 50.0 °F - 32.0 °F 50% 29.91 in 10.0 mi NNW 11.5 mph - N/A   Partly Cloudy
12:56 PM 51.1 °F - 30.9 °F 46% 29.90 in 10.0 mi NW 9.2 mph - N/A   Scattered Clouds
1:56 PM 52.0 °F - 30.9 °F 45% 29.89 in 10.0 mi NW 10.4 mph - N/A   Scattered Clouds
2:56 PM 50.0 °F - 30.9 °F 48% 29.90 in 10.0 mi WNW 9.2 mph - N/A   Scattered Clouds
3:56 PM 48.9 °F - 30.9 °F 50% 29.90 in 10.0 mi WNW 6.9 mph - N/A   Mostly Cloudy
4:56 PM 50.0 °F - 30.9 °F 48% 29.90 in 10.0 mi WNW 4.6 mph - N/A   Mostly Cloudy
5:56 PM 48.9 °F - 30.9 °F 50% 29.92 in 10.0 mi North 6.9 mph - N/A   Mostly Cloudy
6:56 PM 48.0 °F - 32.0 °F 54% 29.93 in 10.0 mi North 13.8 mph - N/A   Overcast
7:56 PM 44.1 °F 37.1 °F 30.0 °F 58% 29.95 in 10.0 mi North 15.0 mph - N/A   Overcast
8:56 PM 44.1 °F 38.6 °F 30.0 °F 58% 29.96 in 10.0 mi North 10.4 mph - N/A   Overcast
9:56 PM 43.0 °F 36.0 °F 28.9 °F 58% 29.97 in 10.0 mi North 13.8 mph - N/A   Overcast
10:56 PM 43.0 °F 37.2 °F 28.9 °F 58% 29.96 in 10.0 mi North 10.4 mph - N/A   Overcast